| time (UTC) | temp F | wind direction | speed MPH | gust MPH | rain 1hr in | rain 24hr in | rain mn in | humidity % | barometer mb |
| 20260508073505 | 75 | 63 | 8.0 | 11.0 | 0.00 | 0.00 | 0.00 | 88 | 1018.9 |
| 20260508073002 | 75 | 54 | 6.0 | 11.0 | 0.00 | 0.00 | 0.00 | 88 | 1019.0 |
| 20260508072458 | 75 | 69 | 7.0 | 9.0 | 0.00 | 0.00 | 0.00 | 89 | 1018.8 |
| 20260508071955 | 75 | 55 | 5.0 | 11.0 | 0.00 | 0.00 | 0.00 | 89 | 1019.0 |
| 20260508071453 | 75 | 95 | 6.0 | 8.0 | 0.00 | 0.00 | 0.00 | 89 | 1018.8 |
| 20260508070951 | 75 | 79 | 9.0 | 11.0 | 0.00 | 0.00 | 0.00 | 90 | 1018.9 |
| 20260508070448 | 75 | 55 | 4.0 | 8.0 | 0.00 | 0.00 | 0.00 | 90 | 1018.9 |
| 20260508065946 | 75 | 54 | 5.0 | 9.0 | 0.00 | 0.00 | 0.00 | 91 | 1018.9 |
| 20260508065444 | 74 | 60 | 6.0 | 8.0 | 0.00 | 0.00 | 0.00 | 91 | 1018.9 |
| 20260508064942 | 74 | 37 | 3.0 | 8.0 | 0.00 | 0.00 | 0.00 | 92 | 1019.0 |
| 20260508064439 | 75 | 81 | 4.0 | 8.0 | 0.00 | 0.00 | 0.00 | 92 | 1018.9 |
| 20260508063937 | 75 | 76 | 5.0 | 8.0 | 0.00 | 0.00 | 0.00 | 92 | 1019.1 |
| 20260508063434 | 75 | 138 | 3.0 | 7.0 | 0.00 | 0.00 | 0.00 | 93 | 1019.2 |
| 20260508062932 | 75 | 124 | 3.0 | 7.0 | 0.00 | 0.00 | 0.00 | 93 | 1019.0 |
| 20260508062429 | 75 | 87 | 6.0 | 8.0 | 0.00 | 0.00 | 0.00 | 93 | 1019.3 |
| 20260508061926 | 75 | 100 | 3.0 | 4.0 | 0.00 | 0.00 | 0.00 | 92 | 1019.1 |
| 20260508061424 | 75 | 166 | 3.0 | 4.0 | 0.00 | 0.00 | 0.00 | 92 | 1019.3 |
| 20260508060919 | 75 | 110 | 4.0 | 6.0 | 0.00 | 0.00 | 0.00 | 92 | 1019.2 |
| 20260508060417 | 75 | 90 | 4.0 | 6.0 | 0.00 | 0.00 | 0.00 | 92 | 1019.4 |
| 20260508055913 | 75 | 84 | 3.0 | 6.0 | 0.00 | 0.00 | 0.00 | 92 | 1019.3 |
| 20260508055410 | 75 | 72 | 5.0 | 6.0 | 0.00 | 0.00 | 0.00 | 92 | 1019.5 |
| 20260508054906 | 75 | 68 | 4.0 | 7.0 | 0.00 | 0.00 | 0.00 | 92 | 1019.6 |
| 20260508054404 | 75 | 104 | 4.0 | 6.0 | 0.00 | 0.00 | 0.00 | 92 | 1019.8 |
| 20260508053900 | 75 | 121 | 3.0 | 4.0 | 0.00 | 0.00 | 0.00 | 92 | 1019.7 |
| 20260508053358 | 75 | 90 | 5.0 | 6.0 | 0.00 | 0.00 | 0.00 | 92 | 1019.8 |
| 20260508052855 | 75 | 85 | 5.0 | 7.0 | 0.00 | 0.00 | 0.00 | 92 | 1020.0 |
| 20260508052353 | 75 | 45 | 5.0 | 7.0 | 0.00 | 0.00 | 0.00 | 92 | 1019.9 |
| 20260508051849 | 75 | 113 | 5.0 | 8.0 | 0.00 | 0.00 | 0.00 | 92 | 1019.7 |
| 20260508051344 | 75 | 99 | 5.0 | 8.0 | 0.00 | 0.00 | 0.00 | 92 | 1019.9 |
| 20260508050841 | 75 | 81 | 4.0 | 7.0 | 0.00 | 0.00 | 0.00 | 92 | 1020.0 |
| 20260508050338 | 75 | 93 | 5.0 | 8.0 | 0.00 | 0.00 | 0.00 | 92 | 1020.1 |
| 20260508045833 | 75 | 86 | 5.0 | 9.0 | 0.00 | 0.00 | 0.00 | 92 | 1020.1 |
| 20260508045331 | 75 | 83 | 6.0 | 8.0 | 0.00 | 0.00 | 0.00 | 92 | 1020.3 |
| 20260508044829 | 75 | 109 | 5.0 | 8.0 | 0.00 | 0.00 | 0.00 | 92 | 1020.2 |
| 20260508044325 | 75 | 102 | 6.0 | 8.0 | 0.00 | 0.00 | 0.00 | 93 | 1020.4 |
| 20260508043821 | 75 | 87 | 5.0 | 8.0 | 0.00 | 0.00 | 0.00 | 93 | 1020.2 |
| 20260508043319 | 75 | 77 | 5.0 | 8.0 | 0.00 | 0.00 | 0.00 | 93 | 1020.5 |
| 20260508042815 | 75 | 157 | 4.0 | 8.0 | 0.00 | 0.00 | 0.00 | 93 | 1020.5 |
| 20260508042313 | 75 | 63 | 5.0 | 9.0 | 0.00 | 0.00 | 0.00 | 93 | 1020.5 |
| 20260508041809 | 75 | 129 | 5.0 | 7.0 | 0.00 | 0.00 | 0.00 | 94 | 1020.7 |
| 20260508041306 | 74 | 50 | 5.0 | 9.0 | 0.00 | 0.00 | 0.00 | 94 | 1020.7 |
| 20260508040802 | 74 | 79 | 4.0 | 7.0 | 0.00 | 0.00 | 0.00 | 94 | 1020.8 |
| 20260508040300 | 74 | 52 | 4.0 | 7.0 | 0.00 | 0.00 | 0.00 | 94 | 1020.8 |
| 20260508035757 | 74 | 74 | 4.0 | 8.0 | 0.00 | 0.10 | 0.10 | 94 | 1020.9 |
| 20260508035255 | 74 | 78 | 5.0 | 10.0 | 0.00 | 0.10 | 0.10 | 94 | 1020.8 |
| 20260508034751 | 74 | 95 | 4.0 | 7.0 | 0.00 | 0.10 | 0.10 | 94 | 1021.0 |
| 20260508034248 | 74 | 55 | 4.0 | 7.0 | 0.00 | 0.10 | 0.10 | 94 | 1020.7 |
| 20260508033745 | 74 | 58 | 5.0 | 8.0 | 0.00 | 0.10 | 0.10 | 95 | 1020.9 |
| 20260508033243 | 74 | 9 | 6.0 | 9.0 | 0.00 | 0.10 | 0.10 | 95 | 1021.0 |
| 20260508032741 | 74 | 60 | 4.0 | 8.0 | 0.00 | 0.10 | 0.10 | 94 | 1021.0 |
| 20260508032238 | 74 | 44 | 4.0 | 8.0 | 0.00 | 0.10 | 0.10 | 95 | 1021.1 |
| 20260508031734 | 74 | 76 | 4.0 | 6.0 | 0.00 | 0.10 | 0.10 | 95 | 1021.0 |
| 20260508031231 | 74 | 79 | 4.0 | 8.0 | 0.00 | 0.10 | 0.10 | 95 | 1020.9 |
| 20260508030727 | 74 | 71 | 6.0 | 8.0 | 0.00 | 0.10 | 0.10 | 95 | 1021.0 |
| 20260508030225 | 73 | 91 | 4.0 | 8.0 | 0.00 | 0.10 | 0.10 | 95 | 1021.0 |
| 20260508025721 | 73 | 260 | 3.0 | 6.0 | 0.00 | 0.10 | 0.10 | 95 | 1021.0 |
| 20260508025218 | 73 | 117 | 3.0 | 7.0 | 0.00 | 0.10 | 0.10 | 95 | 1021.1 |
| 20260508024714 | 73 | 113 | 3.0 | 6.0 | 0.05 | 0.10 | 0.10 | 94 | 1021.2 |
| 20260508024211 | 73 | 102 | 6.0 | 8.0 | 0.12 | 0.10 | 0.10 | 94 | 1021.3 |
| 20260508023708 | 74 | 84 | 8.0 | 10.0 | 0.07 | 0.09 | 0.09 | 94 | 1021.4 |
| 20260508023206 | 73 | 28 | 6.0 | 9.0 | 0.00 | 0.08 | 0.08 | 94 | 1021.4 |
| 20260508022701 | 73 | 108 | 4.0 | 8.0 | 0.00 | 0.08 | 0.08 | 94 | 1021.2 |
| 20260508022158 | 73 | 123 | 4.0 | 7.0 | 0.00 | 0.08 | 0.08 | 94 | 1021.2 |
| 20260508021654 | 73 | 76 | 4.0 | 6.0 | 0.00 | 0.08 | 0.08 | 94 | 1021.2 |
| 20260508021150 | 73 | 67 | 4.0 | 6.0 | 0.00 | 0.08 | 0.08 | 94 | 1021.0 |
| 20260508020648 | 74 | 119 | 3.0 | 7.0 | 0.00 | 0.08 | 0.08 | 94 | 1021.2 |
| 20260508020145 | 74 | 49 | 5.0 | 7.0 | 0.00 | 0.08 | 0.08 | 94 | 1021.2 |
| 20260508015642 | 74 | 200 | 3.0 | 7.0 | 0.00 | 0.08 | 0.08 | 94 | 1021.2 |
| 20260508015139 | 74 | 92 | 6.0 | 7.0 | 0.00 | 0.08 | 0.08 | 94 | 1021.2 |
| 20260508014636 | 74 | 111 | 4.0 | 4.0 | 0.00 | 0.08 | 0.08 | 93 | 1021.2 |
| 20260508014132 | 74 | 114 | 3.0 | 6.0 | 0.00 | 0.08 | 0.08 | 93 | 1021.2 |
| 20260508013628 | 74 | 173 | 1.0 | 4.0 | 0.00 | 0.08 | 0.08 | 93 | 1021.5 |
| 20260508013125 | 74 | 143 | 5.0 | 6.0 | 0.05 | 0.08 | 0.08 | 93 | 1021.2 |
| 20260508012623 | 74 | 112 | 4.0 | 6.0 | 0.05 | 0.08 | 0.08 | 93 | 1021.3 |
| 20260508012120 | 74 | 100 | 5.0 | 9.0 | 0.00 | 0.07 | 0.07 | 92 | 1021.3 |
| 20260508011618 | 75 | 158 | 5.0 | 8.0 | 0.07 | 0.07 | 0.07 | 91 | 1021.1 |
| 20260508011115 | 75 | 93 | 5.0 | 9.0 | 0.00 | 0.06 | 0.06 | 91 | 1021.4 |
| 20260508010612 | 75 | 110 | 5.0 | 7.0 | 0.00 | 0.06 | 0.06 | 91 | 1021.2 |
| 20260508010110 | 75 | 122 | 3.0 | 3.0 | 0.05 | 0.06 | 0.06 | 91 | 1021.0 |
| 20260508005606 | 75 | 180 | 1.0 | 2.0 | 0.05 | 0.06 | 0.06 | 91 | 1020.9 |
| 20260508005102 | 75 | 72 | 2.0 | 6.0 | 0.12 | 0.05 | 0.05 | 90 | 1021.1 |
| 20260508004558 | 75 | 60 | 1.0 | 3.0 | 0.12 | 0.04 | 0.04 | 90 | 1020.9 |
| 20260508004055 | 75 | 91 | 1.0 | 3.0 | 0.00 | 0.02 | 0.02 | 90 | 1020.8 |
| 20260508003552 | 76 | 200 | 1.0 | 3.0 | 0.05 | 0.02 | 0.02 | 89 | 1020.8 |
| 20260508003050 | 76 | 87 | 3.0 | 6.0 | 0.00 | 0.01 | 0.01 | 89 | 1020.5 |
| 20260508002545 | 76 | 51 | 3.0 | 4.0 | 0.00 | 0.01 | 0.01 | 88 | 1020.4 |
| 20260508002043 | 76 | 179 | 2.0 | 3.0 | 0.00 | 0.01 | 0.01 | 88 | 1020.6 |
| 20260508001538 | 77 | 150 | 2.0 | 3.0 | 0.00 | 0.01 | 0.01 | 88 | 1020.4 |
| 20260508001035 | 77 | 42 | 2.0 | 6.0 | 0.07 | 0.01 | 0.01 | 88 | 1020.6 |
| 20260508000531 | 78 | 177 | 1.0 | 2.0 | 0.07 | 0.01 | 0.01 | 87 | 1020.4 |
| 20260508000029 | 78 | 19 | 1.0 | 2.0 | 0.00 | 0.00 | 0.00 | 86 | 1020.4 |
| 20260507235525 | 78 | 73 | 1.0 | 2.0 | 0.00 | 0.00 | 0.00 | 85 | 1020.4 |
| 20260507235022 | 78 | 309 | 1.0 | 2.0 | 0.00 | 0.00 | 0.00 | 85 | 1020.2 |
| 20260507234519 | 78 | 264 | 1.0 | 3.0 | 0.00 | 0.00 | 0.00 | 84 | 1020.3 |
| 20260507234015 | 79 | 66 | 2.0 | 4.0 | 0.00 | 0.00 | 0.00 | 83 | 1020.3 |
| 20260507233512 | 79 | 146 | 4.0 | 6.0 | 0.00 | 0.00 | 0.00 | 83 | 1020.1 |
| 20260507233011 | 79 | 96 | 5.0 | 7.0 | 0.00 | 0.00 | 0.00 | 83 | 1020.3 |
| 20260507232506 | 79 | 150 | 4.0 | 6.0 | 0.00 | 0.00 | 0.00 | 83 | 1020.2 |
| 20260507232004 | 79 | 118 | 2.0 | 7.0 | 0.00 | 0.00 | 0.00 | 83 | 1020.0 |
| 20260507231500 | 79 | 146 | 4.0 | 7.0 | 0.00 | 0.00 | 0.00 | 83 | 1020.0 |
| 20260507230958 | 79 | 91 | 5.0 | 7.0 | 0.00 | 0.00 | 0.00 | 83 | 1020.0 |
| 20260507230454 | 79 | 133 | 2.0 | 7.0 | 0.00 | 0.00 | 0.00 | 83 | 1019.9 |
| 20260507225949 | 79 | 117 | 3.0 | 6.0 | 0.00 | 0.00 | 0.00 | 82 | 1019.8 |
| 20260507225446 | 79 | 98 | 4.0 | 6.0 | 0.00 | 0.00 | 0.00 | 82 | 1019.9 |
| 20260507224942 | 79 | 97 | 3.0 | 7.0 | 0.00 | 0.00 | 0.00 | 82 | 1019.9 |
| 20260507224438 | 79 | 111 | 6.0 | 7.0 | 0.00 | 0.00 | 0.00 | 82 | 1019.5 |
| 20260507223935 | 79 | 155 | 3.0 | 10.0 | 0.00 | 0.00 | 0.00 | 82 | 1019.7 |
| 20260507223431 | 79 | 71 | 5.0 | 7.0 | 0.00 | 0.00 | 0.00 | 81 | 1019.6 |
| 20260507222928 | 80 | 93 | 6.0 | 8.0 | 0.00 | 0.00 | 0.00 | 81 | 1019.8 |
| 20260507222425 | 80 | 70 | 4.0 | 9.0 | 0.00 | 0.00 | 0.00 | 80 | 1019.5 |
| 20260507221921 | 80 | 204 | 4.0 | 7.0 | 0.00 | 0.00 | 0.00 | 81 | 1019.8 |
| 20260507221413 | 80 | 92 | 4.0 | 6.0 | 0.00 | 0.00 | 0.00 | 81 | 1019.5 |
| 20260507220908 | 80 | 131 | 4.0 | 7.0 | 0.00 | 0.00 | 0.00 | 81 | 1019.7 |
| 20260507220406 | 80 | 110 | 8.0 | 10.0 | 0.00 | 0.00 | 0.00 | 80 | 1019.6 |
| 20260507215903 | 80 | 128 | 4.0 | 8.0 | 0.00 | 0.00 | 0.00 | 80 | 1019.6 |
| 20260507215359 | 80 | 109 | 6.0 | 8.0 | 0.00 | 0.00 | 0.00 | 80 | 1019.5 |
| 20260507214857 | 80 | 67 | 3.0 | 8.0 | 0.00 | 0.00 | 0.00 | 80 | 1019.5 |
| 20260507214354 | 80 | 103 | 4.0 | 9.0 | 0.00 | 0.00 | 0.00 | 79 | 1019.2 |
| 20260507213849 | 80 | 122 | 5.0 | 8.0 | 0.00 | 0.00 | 0.00 | 80 | 1019.4 |
| 20260507213346 | 80 | 99 | 2.0 | 8.0 | 0.00 | 0.00 | 0.00 | 80 | 1019.2 |
| 20260507212843 | 80 | 134 | 5.0 | 10.0 | 0.00 | 0.00 | 0.00 | 79 | 1019.1 |
| 20260507212339 | 81 | 117 | 6.0 | 13.0 | 0.00 | 0.00 | 0.00 | 79 | 1019.3 |
| 20260507211836 | 81 | 94 | 9.0 | 11.0 | 0.00 | 0.00 | 0.00 | 78 | 1019.4 |
| 20260507211332 | 81 | 48 | 4.0 | 11.0 | 0.00 | 0.00 | 0.00 | 78 | 1019.1 |
| 20260507210829 | 82 | 138 | 7.0 | 9.0 | 0.00 | 0.00 | 0.00 | 78 | 1019.0 |
| 20260507210326 | 82 | 187 | 8.0 | 10.0 | 0.00 | 0.00 | 0.00 | 79 | 1019.3 |
| 20260507205823 | 81 | 95 | 4.0 | 9.0 | 0.00 | 0.00 | 0.00 | 80 | 1019.2 |
| 20260507205320 | 80 | 71 | 6.0 | 10.0 | 0.00 | 0.00 | 0.00 | 82 | 1019.4 |
| 20260507204815 | 80 | 81 | 5.0 | 9.0 | 0.00 | 0.00 | 0.00 | 83 | 1019.5 |
| 20260507204313 | 80 | 129 | 4.0 | 8.0 | 0.00 | 0.00 | 0.00 | 85 | 1019.0 |
| 20260507203811 | 79 | 121 | 6.0 | 7.0 | 0.00 | 0.00 | 0.00 | 86 | 1019.2 |
| 20260507203309 | 79 | 88 | 4.0 | 8.0 | 0.00 | 0.00 | 0.00 | 85 | 1019.2 |
| 20260507202805 | 80 | 215 | 6.0 | 8.0 | 0.00 | 0.00 | 0.00 | 84 | 1019.4 |
| 20260507202301 | 80 | 92 | 6.0 | 9.0 | 0.00 | 0.00 | 0.00 | 83 | 1019.3 |
| 20260507201755 | 80 | 116 | 7.0 | 10.0 | 0.00 | 0.00 | 0.00 | 82 | 1019.5 |
| 20260507201252 | 80 | 147 | 6.0 | 10.0 | 0.00 | 0.00 | 0.00 | 81 | 1019.1 |
| 20260507200749 | 82 | 87 | 7.0 | 11.0 | 0.00 | 0.00 | 0.00 | 77 | 1019.5 |
| 20260507200245 | 82 | 125 | 6.0 | 10.0 | 0.00 | 0.00 | 0.00 | 75 | 1019.5 |
| 20260507195741 | 83 | 151 | 7.0 | 14.0 | 0.00 | 0.00 | 0.00 | 73 | 1019.8 |
| 20260507195239 | 84 | 187 | 4.0 | 14.0 | 0.00 | 0.00 | 0.00 | 72 | 1019.8 |
| 20260507194736 | 84 | 138 | 9.0 | 14.0 | 0.00 | 0.00 | 0.00 | 71 | 1019.8 |
| 20260507194232 | 84 | 165 | 7.0 | 16.0 | 0.00 | 0.00 | 0.00 | 74 | 1019.7 |
| 20260507193729 | 86 | 107 | 15.0 | 18.0 | 0.00 | 0.00 | 0.00 | 72 | 1019.9 |
| 20260507193226 | 86 | 115 | 6.0 | 13.0 | 0.00 | 0.00 | 0.00 | 72 | 1019.7 |
| 20260507192722 | 85 | 148 | 5.0 | 15.0 | 0.00 | 0.00 | 0.00 | 72 | 1019.8 |
| 20260507192219 | 84 | 161 | 7.0 | 15.0 | 0.00 | 0.00 | 0.00 | 71 | 1019.7 |
| 20260507191714 | 84 | 155 | 5.0 | 10.0 | 0.00 | 0.00 | 0.00 | 73 | 1019.8 |
| 20260507191212 | 84 | 171 | 5.0 | 11.0 | 0.00 | 0.00 | 0.00 | 74 | 1019.8 |
| 20260507190709 | 85 | 119 | 9.0 | 13.0 | 0.00 | 0.00 | 0.00 | 72 | 1020.1 |
| 20260507190208 | 87 | 139 | 9.0 | 15.0 | 0.00 | 0.00 | 0.00 | 68 | 1020.0 |
| 20260507185706 | 86 | 200 | 6.0 | 10.0 | 0.00 | 0.00 | 0.00 | 66 | 1019.9 |
| 20260507185202 | 87 | 347 | 6.0 | 13.0 | 0.00 | 0.00 | 0.00 | 66 | 1019.8 |
| 20260507184700 | 86 | 123 | 7.0 | 11.0 | 0.00 | 0.00 | 0.00 | 67 | 1019.9 |
| 20260507184158 | 85 | 156 | 8.0 | 14.0 | 0.00 | 0.00 | 0.00 | 66 | 1020.0 |
| 20260507183653 | 87 | 204 | 5.0 | 9.0 | 0.00 | 0.00 | 0.00 | 66 | 1019.9 |
| 20260507183150 | 86 | 95 | 6.0 | 9.0 | 0.00 | 0.00 | 0.00 | 69 | 1020.3 |
| 20260507182647 | 87 | 124 | 10.0 | 16.0 | 0.00 | 0.00 | 0.00 | 65 | 1019.9 |
| 20260507182143 | 87 | 132 | 7.0 | 18.0 | 0.00 | 0.00 | 0.00 | 64 | 1020.1 |
| 20260507181639 | 87 | 114 | 10.0 | 15.0 | 0.00 | 0.00 | 0.00 | 64 | 1020.3 |
| 20260507181136 | 87 | 100 | 10.0 | 16.0 | 0.00 | 0.00 | 0.00 | 67 | 1020.5 |
| 20260507180632 | 87 | 119 | 10.0 | 13.0 | 0.00 | 0.00 | 0.00 | 68 | 1020.3 |
| 20260507180130 | 87 | 151 | 7.0 | 16.0 | 0.00 | 0.00 | 0.00 | 66 | 1020.3 |
| 20260507175625 | 87 | 199 | 12.0 | 15.0 | 0.00 | 0.00 | 0.00 | 64 | 1020.5 |
| 20260507175123 | 87 | 92 | 10.0 | 14.0 | 0.00 | 0.00 | 0.00 | 70 | 1020.5 |
| 20260507174620 | 87 | 160 | 11.0 | 18.0 | 0.00 | 0.00 | 0.00 | 67 | 1020.5 |
| 20260507174118 | 87 | 61 | 8.0 | 13.0 | 0.00 | 0.00 | 0.00 | 67 | 1020.7 |
| 20260507173615 | 87 | 163 | 10.0 | 16.0 | 0.00 | 0.00 | 0.00 | 68 | 1020.8 |
| 20260507173112 | 86 | 93 | 8.0 | 14.0 | 0.00 | 0.00 | 0.00 | 70 | 1020.7 |
| 20260507172608 | 87 | 114 | 5.0 | 15.0 | 0.00 | 0.00 | 0.00 | 69 | 1020.8 |
| 20260507172106 | 86 | 103 | 12.0 | 18.0 | 0.00 | 0.00 | 0.00 | 66 | 1020.9 |
| 20260507171601 | 87 | 125 | 14.0 | 16.0 | 0.00 | 0.00 | 0.00 | 66 | 1021.1 |
| 20260507171058 | 87 | 125 | 9.0 | 14.0 | 0.00 | 0.00 | 0.00 | 68 | 1021.1 |
| 20260507170555 | 88 | 136 | 7.0 | 15.0 | 0.00 | 0.00 | 0.00 | 67 | 1021.3 |
| 20260507170052 | 87 | 190 | 10.0 | 15.0 | 0.00 | 0.00 | 0.00 | 67 | 1021.1 |
| 20260507165547 | 87 | 141 | 9.0 | 11.0 | 0.00 | 0.00 | 0.00 | 67 | 1021.2 |
| 20260507165043 | 87 | 158 | 11.0 | 15.0 | 0.00 | 0.00 | 0.00 | 68 | 1021.4 |
| 20260507164539 | 85 | 107 | 8.0 | 10.0 | 0.00 | 0.00 | 0.00 | 74 | 1021.4 |
| 20260507164037 | 86 | 194 | 7.0 | 14.0 | 0.00 | 0.00 | 0.00 | 72 | 1021.5 |
| 20260507163534 | 86 | 118 | 13.0 | 16.0 | 0.00 | 0.00 | 0.00 | 71 | 1021.5 |
| 20260507163032 | 86 | 148 | 6.0 | 14.0 | 0.00 | 0.00 | 0.00 | 71 | 1021.7 |
| 20260507162526 | 87 | 104 | 9.0 | 16.0 | 0.00 | 0.00 | 0.00 | 70 | 1021.5 |
| 20260507162023 | 87 | 169 | 10.0 | 17.0 | 0.00 | 0.00 | 0.00 | 70 | 1021.6 |
| 20260507161520 | 88 | 101 | 9.0 | 16.0 | 0.00 | 0.00 | 0.00 | 67 | 1021.6 |
| 20260507161017 | 87 | 142 | 13.0 | 17.0 | 0.00 | 0.00 | 0.00 | 69 | 1021.6 |
| 20260507160513 | 87 | 151 | 8.0 | 13.0 | 0.00 | 0.00 | 0.00 | 68 | 1021.7 |
| 20260507160009 | 88 | 60 | 7.0 | 14.0 | 0.00 | 0.00 | 0.00 | 68 | 1021.6 |
| 20260507155504 | 87 | 133 | 7.0 | 16.0 | 0.00 | 0.00 | 0.00 | 66 | 1021.8 |
| 20260507155002 | 86 | 114 | 11.0 | 17.0 | 0.00 | 0.00 | 0.00 | 68 | 1022.0 |
| 20260507154458 | 88 | 155 | 11.0 | 15.0 | 0.00 | 0.00 | 0.00 | 67 | 1021.9 |
| 20260507153955 | 87 | 112 | 14.0 | 17.0 | 0.00 | 0.00 | 0.00 | 67 | 1022.1 |
| 20260507153452 | 86 | 118 | 9.0 | 17.0 | 0.00 | 0.00 | 0.00 | 70 | 1021.9 |
| 20260507152949 | 87 | 123 | 10.0 | 18.0 | 0.00 | 0.00 | 0.00 | 68 | 1021.9 |
| 20260507152444 | 87 | 105 | 8.0 | 16.0 | 0.00 | 0.00 | 0.00 | 69 | 1022.0 |
| 20260507151941 | 88 | 157 | 11.0 | 15.0 | 0.00 | 0.00 | 0.00 | 66 | 1021.9 |
| 20260507151437 | 88 | 67 | 11.0 | 14.0 | 0.00 | 0.00 | 0.00 | 66 | 1022.2 |
| 20260507150934 | 88 | 108 | 10.0 | 15.0 | 0.00 | 0.00 | 0.00 | 66 | 1022.0 |
| 20260507150431 | 87 | 146 | 8.0 | 16.0 | 0.00 | 0.00 | 0.00 | 66 | 1022.0 |
| 20260507145927 | 87 | 136 | 12.0 | 16.0 | 0.00 | 0.00 | 0.00 | 66 | 1021.8 |
| 20260507145423 | 87 | 112 | 6.0 | 17.0 | 0.00 | 0.00 | 0.00 | 68 | 1021.9 |
| 20260507144921 | 87 | 116 | 14.0 | 21.0 | 0.00 | 0.00 | 0.00 | 65 | 1022.1 |
| 20260507144418 | 87 | 177 | 6.0 | 21.0 | 0.00 | 0.00 | 0.00 | 70 | 1022.0 |
| 20260507143914 | 88 | 53 | 7.0 | 16.0 | 0.00 | 0.00 | 0.00 | 66 | 1022.3 |
| 20260507143412 | 86 | 120 | 11.0 | 17.0 | 0.00 | 0.00 | 0.00 | 68 | 1022.1 |
| 20260507142908 | 86 | 94 | 15.0 | 17.0 | 0.00 | 0.00 | 0.00 | 68 | 1022.2 |
| 20260507142404 | 86 | 56 | 8.0 | 17.0 | 0.00 | 0.00 | 0.00 | 70 | 1022.1 |
| 20260507141901 | 87 | 120 | 9.0 | 15.0 | 0.00 | 0.00 | 0.00 | 70 | 1022.0 |
| 20260507141357 | 87 | 71 | 9.0 | 21.0 | 0.00 | 0.00 | 0.00 | 68 | 1021.9 |
| 20260507140854 | 86 | 91 | 11.0 | 16.0 | 0.00 | 0.00 | 0.00 | 68 | 1022.1 |
| 20260507140351 | 86 | 99 | 12.0 | 19.0 | 0.00 | 0.00 | 0.00 | 68 | 1021.8 |
| 20260507135849 | 86 | 96 | 11.0 | 19.0 | 0.00 | 0.00 | 0.00 | 67 | 1022.1 |
| 20260507135345 | 87 | 96 | 12.0 | 16.0 | 0.00 | 0.00 | 0.00 | 66 | 1022.0 |
| 20260507134843 | 86 | 92 | 10.0 | 18.0 | 0.00 | 0.00 | 0.00 | 68 | 1021.9 |
| 20260507134339 | 85 | 46 | 9.0 | 15.0 | 0.00 | 0.00 | 0.00 | 70 | 1022.1 |
| 20260507133835 | 86 | 226 | 10.0 | 16.0 | 0.00 | 0.00 | 0.00 | 70 | 1022.0 |
| 20260507133330 | 86 | 139 | 9.0 | 16.0 | 0.00 | 0.00 | 0.00 | 70 | 1021.8 |
| 20260507132829 | 86 | 160 | 7.0 | 15.0 | 0.00 | 0.00 | 0.00 | 70 | 1022.0 |
| 20260507132325 | 86 | 104 | 10.0 | 14.0 | 0.00 | 0.00 | 0.00 | 69 | 1021.8 |
| 20260507131823 | 86 | 97 | 10.0 | 16.0 | 0.00 | 0.00 | 0.00 | 69 | 1021.8 |
| 20260507131319 | 86 | 91 | 11.0 | 18.0 | 0.00 | 0.00 | 0.00 | 68 | 1021.8 |
| 20260507130816 | 86 | 73 | 9.0 | 15.0 | 0.00 | 0.00 | 0.00 | 70 | 1021.6 |
| 20260507130313 | 85 | 77 | 9.0 | 13.0 | 0.00 | 0.00 | 0.00 | 70 | 1021.7 |
| 20260507125812 | 86 | 137 | 11.0 | 14.0 | 0.00 | 0.00 | 0.00 | 70 | 1021.6 |
| 20260507125309 | 85 | 114 | 9.0 | 17.0 | 0.00 | 0.00 | 0.00 | 70 | 1021.6 |
| 20260507124806 | 84 | 96 | 9.0 | 16.0 | 0.00 | 0.00 | 0.00 | 70 | 1021.6 |
| 20260507124302 | 84 | 173 | 10.0 | 13.0 | 0.00 | 0.00 | 0.00 | 71 | 1021.6 |
| 20260507123801 | 84 | 88 | 12.0 | 14.0 | 0.00 | 0.00 | 0.00 | 71 | 1021.6 |
| 20260507123258 | 84 | 71 | 11.0 | 14.0 | 0.00 | 0.00 | 0.00 | 73 | 1021.4 |
| 20260507122754 | 83 | 116 | 11.0 | 15.0 | 0.00 | 0.00 | 0.00 | 74 | 1021.3 |
| 20260507122249 | 83 | 114 | 6.0 | 11.0 | 0.00 | 0.00 | 0.00 | 74 | 1021.4 |
| 20260507121746 | 83 | 220 | 4.0 | 13.0 | 0.00 | 0.00 | 0.00 | 73 | 1021.3 |
| 20260507121241 | 83 | 117 | 9.0 | 13.0 | 0.00 | 0.00 | 0.00 | 73 | 1021.1 |
| 20260507120738 | 83 | 87 | 6.0 | 13.0 | 0.00 | 0.00 | 0.00 | 73 | 1021.0 |
| 20260507120235 | 83 | 92 | 10.0 | 14.0 | 0.00 | 0.00 | 0.00 | 74 | 1020.9 |
| 20260507115731 | 82 | 70 | 11.0 | 14.0 | 0.00 | 0.00 | 0.00 | 75 | 1020.9 |
| 20260507115227 | 82 | 88 | 9.0 | 15.0 | 0.00 | 0.00 | 0.00 | 75 | 1021.1 |
| 20260507114722 | 81 | 126 | 9.0 | 13.0 | 0.00 | 0.00 | 0.00 | 76 | 1020.8 |
| 20260507114220 | 81 | 121 | 7.0 | 14.0 | 0.00 | 0.00 | 0.00 | 77 | 1020.7 |
| 20260507113718 | 81 | 93 | 8.0 | 13.0 | 0.00 | 0.00 | 0.00 | 77 | 1020.9 |
| 20260507113214 | 80 | 69 | 9.0 | 15.0 | 0.00 | 0.00 | 0.00 | 78 | 1020.8 |
| 20260507112712 | 80 | 121 | 7.0 | 10.0 | 0.00 | 0.00 | 0.00 | 78 | 1020.9 |
| 20260507112209 | 80 | 87 | 8.0 | 9.0 | 0.00 | 0.00 | 0.00 | 79 | 1020.7 |
| 20260507111706 | 80 | 102 | 6.0 | 9.0 | 0.00 | 0.00 | 0.00 | 79 | 1020.8 |
| 20260507111203 | 79 | 112 | 6.0 | 8.0 | 0.00 | 0.00 | 0.00 | 80 | 1021.0 |
| 20260507110658 | 79 | 39 | 5.0 | 8.0 | 0.00 | 0.00 | 0.00 | 81 | 1021.0 |
| 20260507110156 | 78 | 72 | 8.0 | 10.0 | 0.00 | 0.00 | 0.00 | 82 | 1020.9 |
| 20260507105653 | 78 | 87 | 7.0 | 8.0 | 0.00 | 0.00 | 0.00 | 82 | 1020.9 |
| 20260507105148 | 78 | 93 | 7.0 | 11.0 | 0.00 | 0.00 | 0.00 | 83 | 1020.8 |
| 20260507104646 | 77 | 129 | 11.0 | 13.0 | 0.00 | 0.00 | 0.00 | 84 | 1020.7 |
| 20260507104142 | 77 | 82 | 8.0 | 11.0 | 0.00 | 0.00 | 0.00 | 85 | 1020.6 |
| 20260507103638 | 76 | 82 | 6.0 | 9.0 | 0.00 | 0.00 | 0.00 | 85 | 1020.7 |
| 20260507103135 | 77 | 61 | 5.0 | 10.0 | 0.00 | 0.00 | 0.00 | 85 | 1020.4 |
| 20260507102632 | 77 | 87 | 11.0 | 14.0 | 0.00 | 0.00 | 0.00 | 85 | 1020.7 |
| 20260507102128 | 76 | 112 | 4.0 | 16.0 | 0.00 | 0.00 | 0.00 | 85 | 1020.6 |
| 20260507101624 | 76 | 96 | 13.0 | 16.0 | 0.00 | 0.00 | 0.00 | 85 | 1020.4 |
| 20260507101120 | 76 | 136 | 5.0 | 11.0 | 0.00 | 0.00 | 0.00 | 85 | 1020.4 |
| 20260507100618 | 76 | 107 | 13.0 | 16.0 | 0.00 | 0.00 | 0.00 | 86 | 1020.0 |
| 20260507100115 | 76 | 63 | 6.0 | 11.0 | 0.00 | 0.00 | 0.00 | 85 | 1020.0 |
| 20260507095613 | 76 | 79 | 8.0 | 15.0 | 0.00 | 0.00 | 0.00 | 85 | 1020.1 |
| 20260507095109 | 76 | 64 | 7.0 | 13.0 | 0.00 | 0.00 | 0.00 | 85 | 1020.1 |
| 20260507094606 | 76 | 88 | 13.0 | 17.0 | 0.00 | 0.00 | 0.00 | 85 | 1020.0 |
| 20260507094103 | 76 | 168 | 5.0 | 11.0 | 0.00 | 0.00 | 0.00 | 84 | 1020.0 |
| 20260507093600 | 76 | 68 | 11.0 | 14.0 | 0.00 | 0.00 | 0.00 | 84 | 1020.0 |
| 20260507093059 | 76 | 124 | 4.0 | 10.0 | 0.00 | 0.00 | 0.00 | 84 | 1020.1 |
| 20260507092555 | 76 | 99 | 9.0 | 16.0 | 0.00 | 0.00 | 0.00 | 84 | 1020.0 |
| 20260507092051 | 76 | 93 | 7.0 | 15.0 | 0.00 | 0.00 | 0.00 | 84 | 1020.0 |
| 20260507091548 | 76 | 107 | 9.0 | 14.0 | 0.00 | 0.00 | 0.00 | 83 | 1020.2 |
| 20260507091044 | 76 | 78 | 11.0 | 15.0 | 0.00 | 0.00 | 0.00 | 83 | 1020.3 |
| 20260507090540 | 76 | 81 | 13.0 | 16.0 | 0.00 | 0.00 | 0.00 | 83 | 1020.2 |
| 20260507090037 | 76 | 76 | 15.0 | 22.0 | 0.00 | 0.00 | 0.00 | 83 | 1020.3 |
| 20260507085535 | 76 | 69 | 6.0 | 16.0 | 0.00 | 0.00 | 0.00 | 82 | 1020.0 |
| 20260507085031 | 77 | 59 | 10.0 | 15.0 | 0.00 | 0.00 | 0.00 | 82 | 1020.1 |
| 20260507084528 | 77 | 100 | 14.0 | 17.0 | 0.00 | 0.00 | 0.00 | 81 | 1020.1 |
| 20260507084025 | 77 | 59 | 12.0 | 16.0 | 0.00 | 0.00 | 0.00 | 82 | 1020.1 |
| 20260507083521 | 76 | 82 | 12.0 | 15.0 | 0.00 | 0.00 | 0.00 | 82 | 1020.0 |
| 20260507083018 | 76 | 110 | 6.0 | 15.0 | 0.00 | 0.00 | 0.00 | 82 | 1020.2 |
| 20260507082514 | 76 | 93 | 13.0 | 15.0 | 0.00 | 0.00 | 0.00 | 82 | 1020.3 |
| 20260507082010 | 76 | 71 | 10.0 | 14.0 | 0.00 | 0.00 | 0.00 | 83 | 1020.4 |
| 20260507081507 | 77 | 79 | 8.0 | 16.0 | 0.00 | 0.00 | 0.00 | 83 | 1020.1 |
| 20260507081004 | 77 | 71 | 9.0 | 14.0 | 0.00 | 0.00 | 0.00 | 84 | 1020.0 |
| 20260507080459 | 76 | 88 | 9.0 | 17.0 | 0.00 | 0.00 | 0.00 | 84 | 1020.0 |
| 20260507075955 | 76 | 77 | 10.0 | 16.0 | 0.00 | 0.00 | 0.00 | 84 | 1020.1 |
| 20260507075452 | 76 | 67 | 7.0 | 15.0 | 0.00 | 0.00 | 0.00 | 84 | 1020.1 |
| 20260507074948 | 76 | 23 | 11.0 | 18.0 | 0.00 | 0.00 | 0.00 | 85 | 1020.1 |
| 20260507074445 | 76 | 76 | 11.0 | 17.0 | 0.00 | 0.00 | 0.00 | 85 | 1020.0 |
| 20260507073943 | 76 | 68 | 10.0 | 17.0 | 0.00 | 0.00 | 0.00 | 85 | 1020.0 |